Flag for Cuba Weather past 2 weeks in Camagüey, Cuba

Now
75 °F

Clear.


Feels Like: 75 °F
Forecast: 73 / 92 °F
Wind: 1 mph from West

Location: Camaguey Aeropuerto

Current Time: Apr 21, 2015 at 3:42:37 AM

Latest Report: Apr 21, 2015 at 2:51 AM


Visibility: 6 mi

Pressure: 29.98 "Hg

Humidity: 83%

Dew point: 70 °F

Location of CamagüeyLocation

Historic Weather in Camagüey — Graph

°F

Camagüey temperature yesterday

Maximum temperature yesterday: 91 °F (at 2:50 PM)
Minimum temperature yesterday: 73 °F (at 1:51 AM)
Average temperature yesterday: 80 °F

Past Weeks' High & Low Weather Summary

 TemperatureHumidityPressure
High93 °F (Apr 17, 3:50 PM)94% (Apr 6, 4:50 AM)30.12 "Hg (Apr 6, 4:50 AM)
Low68 °F (Apr 6, 4:50 AM)30% (Apr 17, 1:50 PM)29.89 "Hg (Apr 19, 3:50 PM)
Average78 °F69%30.04 "Hg
* Reported Apr 6 1:50 AM — Apr 21 1:50 AM, Camagüey, Weather by CustomWeather, © 2015

Note: Actual official high and low records may vary slightly from our data, if they occured in-between our weather recording intervals... More about our weather records

Advertising

Camagüey weather history for previous 24 hours

 ConditionsComfort  
Time TempWeatherWind HumidityBarometerVisibility
1:50 AM
Tue, Apr 21
75 °FPassing clouds.5 mph83%29.98 "Hg6 mi
12:50 AM75 °FPassing clouds.3 mph83%30.01 "Hg6 mi
11:50 PM
Mon, Apr 20
77 °FPassing clouds.5 mph83%30.04 "Hg6 mi
10:50 PM77 °FPassing clouds.5 mph79%30.04 "Hg6 mi
9:50 PM79 °FPassing clouds.2 mph74%30.01 "Hg6 mi
8:50 PM81 °FPassing clouds.6 mph70%29.98 "Hg6 mi
7:50 PM81 °FPartly sunny.7 mph70%29.95 "Hg6 mi
5:53 PM82 °FPassing clouds.5 mph66%29.92 "Hg6 mi
4:58 PM82 °FPartly sunny.14 mph62%29.89 "Hg6 mi
3:50 PM91 °FScattered clouds.7 mph44%29.89 "Hg6 mi
2:50 PM91 °FScattered clouds.5 mph41%29.92 "Hg6 mi
1:50 PM90 °FScattered clouds.3 mph43%29.95 "Hg6 mi
12:50 PM88 °FScattered clouds.5 mph52%29.98 "Hg6 mi
11:50 AM86 °FPassing clouds.3 mph55%30.01 "Hg6 mi
10:50 AM82 °FPassing clouds.2 mph62%30.01 "Hg6 mi
9:50 AM81 °FPassing clouds.2 mph70%30.01 "Hg6 mi
8:50 AM77 °FPassing clouds.6 mph83%30.01 "Hg6 mi
7:53 AM75 °FScattered clouds.5 mph83%30.01 "Hg6 mi
6:50 AM73 °FPassing clouds.1 mph89%29.98 "Hg5 mi
5:51 AM73 °FPassing clouds.5 mph89%29.95 "Hg6 mi
4:50 AM73 °FPassing clouds.3 mph89%29.95 "Hg6 mi
3:50 AM73 °FPartly cloudy.2 mph89%29.98 "Hg6 mi
Weather by CustomWeather, © 2015

See weather overviewHow to use our weather pages